This demonstration page uses our WeatherBlox Daily Observations layout. Learn more.

39.29038, -76.61219

Hourly Observations for February 19, 2020

Temp ( °F °C ) Dew Point ( °F °C ) Humidity (%) Winds ( mph kmh ) Pressure ( in mb ) Visibility ( mi km ) Precip ( " mm )
12:54 am 00:54 undefined 54 12.2 42 5.6 64 64 undefined N/A 30.08 1019 N/A 0 0
1:54 am 01:54 undefined 53 11.7 40 4.4 61 61 undefined N/A 30.09 1019 N/A 0 0
2:54 am 02:54 undefined 51 10.6 33 0.6 50 50 undefined N/A 30.12 1020 N/A 0 0
3:54 am 03:54 undefined 50 10 33 0.6 52 52 undefined N/A 30.15 1021 N/A 0 0
4:54 am 04:54 undefined 48 8.9 27 -2.8 44 44 undefined N/A 30.17 1022 N/A 0 0
5:54 am 05:54 undefined 47 8.3 25 -3.9 42 42 undefined N/A 30.21 1023 N/A 0 0
6:54 am 06:54 undefined 46 7.8 27 -2.8 47 47 undefined N/A 30.24 1024 N/A 0 0
7:54 am 07:54 undefined 44 6.7 25 -3.9 47 47 undefined N/A 30.28 1025 N/A 0 0
8:54 am 08:54 undefined 43 6.1 24 -4.4 47 47 undefined N/A 30.32 1027 N/A 0 0
9:54 am 09:54 undefined 43 6.1 21 -6.1 42 42 undefined N/A 30.32 1027 N/A 0 0
10:54 am 10:54 undefined 45 7.2 20 -6.7 37 37 undefined N/A 30.33 1027 N/A 0 0
11:54 am 11:54 undefined 47 8.3 20 -6.7 34 34 undefined N/A 30.33 1027 N/A 0 0
12:54 pm 12:54 undefined 49 9.4 17 -8.3 28 28 undefined N/A 30.31 1026 N/A 0 0
1:54 pm 13:54 undefined 51 10.6 18 -7.8 27 27 undefined N/A 30.3 1026 N/A 0 0
2:54 pm 14:54 undefined 52 11.1 12 -11.1 20 20 undefined N/A 30.29 1026 N/A 0 0
3:54 pm 15:54 undefined 50 10 13 -10.6 22 22 undefined N/A 30.31 1026 N/A 0 0
4:54 pm 16:54 undefined 50 10 13 -10.6 22 22 undefined N/A 30.32 1027 N/A 0 0
5:54 pm 17:54 undefined 49 9.4 13 -10.6 23 23 undefined N/A 30.34 1028 N/A 0 0
6:54 pm 18:54 undefined 48 8.9 14 -10 25 25 undefined N/A 30.37 1029 N/A 0 0
7:54 pm 19:54 undefined 46 7.8 15 -9.4 29 29 undefined N/A 30.39 1029 N/A 0 0
8:54 pm 20:54 undefined 44 6.7 15 -9.4 31 31 undefined N/A 30.4 1029 N/A 0 0
9:54 pm 21:54 undefined 44 6.7 16 -8.9 32 32 undefined N/A 30.42 1030 N/A 0 0
10:54 pm 22:54 undefined 43 6.1 16 -8.9 34 34 undefined N/A 30.42 1030 N/A 0 0
11:54 pm 23:54 undefined 42 5.6 16 -8.9 35 35 undefined N/A 30.43 1030 N/A 0 0

Powered by AerisWeather